Year,Month,Day,Hour,Minute,Value (Times are PST for temperature in C)
2018,08,13,00,00,13.40
2018,08,13,00,01,13.40
2018,08,13,00,02,13.40
2018,08,13,00,03,13.40
2018,08,13,00,04,13.40
2018,08,13,00,05,13.30
2018,08,13,00,06,13.30
2018,08,13,00,07,13.30
2018,08,13,00,08,13.30
2018,08,13,00,09,13.30
2018,08,13,00,10,13.30
2018,08,13,00,11,13.30
2018,08,13,00,12,13.30
2018,08,13,00,13,13.30
2018,08,13,00,14,13.30
2018,08,13,00,15,13.30
2018,08,13,00,16,13.30
2018,08,13,00,17,13.30
2018,08,13,00,18,13.20
2018,08,13,00,19,13.20
2018,08,13,00,20,13.20
2018,08,13,00,21,13.20
2018,08,13,00,22,13.20
2018,08,13,00,23,13.20
2018,08,13,00,24,13.20
2018,08,13,00,25,13.20
2018,08,13,00,26,13.20
2018,08,13,00,27,13.20
2018,08,13,00,28,13.20
2018,08,13,00,29,13.20
2018,08,13,00,30,13.20
2018,08,13,00,31,13.20
2018,08,13,00,32,13.20
2018,08,13,00,33,13.20
2018,08,13,00,34,13.20
2018,08,13,00,35,13.20
2018,08,13,00,36,13.20
2018,08,13,00,37,13.20
2018,08,13,00,38,13.20
2018,08,13,00,39,13.20
2018,08,13,00,40,13.20
2018,08,13,00,41,13.20
2018,08,13,00,42,13.20
2018,08,13,00,43,13.20
2018,08,13,00,44,13.20
2018,08,13,00,45,13.20
2018,08,13,00,46,13.20
2018,08,13,00,47,13.20
2018,08,13,00,48,13.20
2018,08,13,00,49,13.20
2018,08,13,00,50,13.20
2018,08,13,00,51,13.20
2018,08,13,00,52,13.20
2018,08,13,00,53,13.20
2018,08,13,00,54,13.20
2018,08,13,00,55,13.20
2018,08,13,00,56,13.20
2018,08,13,00,57,13.20
2018,08,13,00,58,13.20
2018,08,13,00,59,13.10
2018,08,13,01,00,13.10
2018,08,13,01,01,13.10
2018,08,13,01,02,13.00
2018,08,13,01,03,13.00
2018,08,13,01,04,12.90
2018,08,13,01,05,12.90
2018,08,13,01,06,12.90
2018,08,13,01,07,12.90
2018,08,13,01,08,12.90
2018,08,13,01,09,12.80
2018,08,13,01,10,12.90
2018,08,13,01,11,12.90
2018,08,13,01,12,12.90
2018,08,13,01,13,12.80
2018,08,13,01,14,12.80
2018,08,13,01,15,12.80
2018,08,13,01,16,12.80
2018,08,13,01,17,12.80
2018,08,13,01,18,12.80
2018,08,13,01,19,12.80
2018,08,13,01,20,12.80
2018,08,13,01,21,12.80
2018,08,13,01,22,12.80
2018,08,13,01,23,12.80
2018,08,13,01,24,12.70
2018,08,13,01,25,12.70
2018,08,13,01,26,12.70
2018,08,13,01,27,12.70
2018,08,13,01,28,12.60
2018,08,13,01,29,12.60
2018,08,13,01,30,12.60
2018,08,13,01,31,12.60
2018,08,13,01,32,12.60
2018,08,13,01,33,12.60
2018,08,13,01,34,12.50
2018,08,13,01,35,12.50
2018,08,13,01,36,12.50
2018,08,13,01,37,12.50
2018,08,13,01,38,12.50
2018,08,13,01,39,12.40
2018,08,13,01,40,12.40
2018,08,13,01,41,12.40
2018,08,13,01,42,12.40
2018,08,13,01,43,12.30
2018,08,13,01,44,12.30
2018,08,13,01,45,12.30
2018,08,13,01,46,12.30
2018,08,13,01,47,12.30
2018,08,13,01,48,12.30
2018,08,13,01,49,12.30
2018,08,13,01,50,12.30
2018,08,13,01,51,12.30
2018,08,13,01,52,12.30
2018,08,13,01,53,12.30
2018,08,13,01,54,12.30
2018,08,13,01,55,12.30
2018,08,13,01,56,12.30
2018,08,13,01,57,12.30
2018,08,13,01,58,12.30
2018,08,13,01,59,12.30
2018,08,13,02,00,12.30
2018,08,13,02,01,12.30
2018,08,13,02,02,12.30
2018,08,13,02,03,12.30
2018,08,13,02,04,12.30
2018,08,13,02,05,12.30
2018,08,13,02,06,12.30
2018,08,13,02,07,12.30
2018,08,13,02,08,12.40
2018,08,13,02,09,12.40
2018,08,13,02,10,12.40
2018,08,13,02,11,12.30
2018,08,13,02,12,12.30
2018,08,13,02,13,12.30
2018,08,13,02,14,12.30
2018,08,13,02,15,12.30
2018,08,13,02,16,12.30
2018,08,13,02,17,12.30
2018,08,13,02,18,12.30
2018,08,13,02,19,12.30
2018,08,13,02,20,12.30
2018,08,13,02,21,12.30
2018,08,13,02,22,12.30
2018,08,13,02,23,12.30
2018,08,13,02,24,12.30
2018,08,13,02,25,12.30
2018,08,13,02,26,12.30
2018,08,13,02,27,12.30
2018,08,13,02,28,12.30
2018,08,13,02,29,12.30
2018,08,13,02,30,12.30
2018,08,13,02,31,12.30
2018,08,13,02,32,12.30
2018,08,13,02,33,12.30
2018,08,13,02,34,12.30
2018,08,13,02,35,12.30
2018,08,13,02,36,12.30
2018,08,13,02,37,12.30
2018,08,13,02,38,12.30
2018,08,13,02,39,12.30
2018,08,13,02,40,12.30
2018,08,13,02,41,12.30
2018,08,13,02,42,12.20
2018,08,13,02,43,12.20
2018,08,13,02,44,12.20
2018,08,13,02,45,12.20
2018,08,13,02,46,12.20
2018,08,13,02,47,12.20
2018,08,13,02,48,12.20
2018,08,13,02,49,12.20
2018,08,13,02,50,12.20
2018,08,13,02,51,12.20
2018,08,13,02,52,12.20
2018,08,13,02,53,12.20
2018,08,13,02,54,12.20
2018,08,13,02,55,12.20
2018,08,13,02,56,12.20
2018,08,13,02,57,12.20
2018,08,13,02,58,12.20
2018,08,13,02,59,12.20
2018,08,13,03,00,12.20
2018,08,13,03,01,12.20
2018,08,13,03,02,12.20
2018,08,13,03,03,12.10
2018,08,13,03,04,12.10
2018,08,13,03,05,12.10
2018,08,13,03,06,12.10
2018,08,13,03,07,12.10
2018,08,13,03,08,12.10
2018,08,13,03,09,12.00
2018,08,13,03,10,12.10
2018,08,13,03,11,12.10
2018,08,13,03,12,12.10
2018,08,13,03,13,12.10
2018,08,13,03,14,12.10
2018,08,13,03,15,12.10
2018,08,13,03,16,12.10
2018,08,13,03,17,12.10
2018,08,13,03,18,12.00
2018,08,13,03,19,12.00
2018,08,13,03,20,12.00
2018,08,13,03,21,12.00
2018,08,13,03,22,12.10
2018,08,13,03,23,12.10
2018,08,13,03,24,12.10
2018,08,13,03,25,12.10
2018,08,13,03,26,12.10
2018,08,13,03,27,12.10
2018,08,13,03,28,12.10
2018,08,13,03,29,12.10
2018,08,13,03,30,12.10
2018,08,13,03,31,12.00
2018,08,13,03,32,12.00
2018,08,13,03,33,12.00
2018,08,13,03,34,12.00
2018,08,13,03,35,12.00
2018,08,13,03,36,12.00
2018,08,13,03,37,12.00
2018,08,13,03,38,12.00
2018,08,13,03,39,12.00
2018,08,13,03,40,12.00
2018,08,13,03,41,12.00
2018,08,13,03,42,12.00
2018,08,13,03,43,11.90
2018,08,13,03,44,11.90
2018,08,13,03,45,11.90
2018,08,13,03,46,11.90
2018,08,13,03,47,11.80
2018,08,13,03,48,11.80
2018,08,13,03,49,11.70
2018,08,13,03,50,11.70
2018,08,13,03,51,11.70
2018,08,13,03,52,11.70
2018,08,13,03,53,11.60
2018,08,13,03,54,11.60
2018,08,13,03,55,11.60
2018,08,13,03,56,11.60
2018,08,13,03,57,11.60
2018,08,13,03,58,11.60
2018,08,13,03,59,11.60
2018,08,13,04,00,11.60
2018,08,13,04,01,11.60
2018,08,13,04,02,11.60
2018,08,13,04,03,11.60
2018,08,13,04,04,11.60
2018,08,13,04,05,11.60
2018,08,13,04,06,11.60
2018,08,13,04,07,11.60
2018,08,13,04,08,11.70
2018,08,13,04,09,11.70
2018,08,13,04,10,11.70
2018,08,13,04,11,11.70
2018,08,13,04,12,11.70
2018,08,13,04,13,11.70
2018,08,13,04,14,11.70
2018,08,13,04,15,11.60
2018,08,13,04,16,11.60
2018,08,13,04,17,11.60
2018,08,13,04,18,11.60
2018,08,13,04,19,11.60
2018,08,13,04,20,11.60
2018,08,13,04,21,11.60
2018,08,13,04,22,11.60
2018,08,13,04,23,11.60
2018,08,13,04,24,11.60
2018,08,13,04,25,11.60
2018,08,13,04,26,11.60
2018,08,13,04,27,11.60
2018,08,13,04,28,11.60
2018,08,13,04,29,11.60
2018,08,13,04,30,11.60
2018,08,13,04,31,11.60
2018,08,13,04,32,11.60
2018,08,13,04,33,11.60
2018,08,13,04,34,11.60
2018,08,13,04,35,11.60
2018,08,13,04,36,11.60
2018,08,13,04,37,11.60
2018,08,13,04,38,11.60
2018,08,13,04,39,11.60
2018,08,13,04,40,11.60
2018,08,13,04,41,11.60
2018,08,13,04,42,11.60
2018,08,13,04,43,11.70
2018,08,13,04,44,11.70
2018,08,13,04,45,11.70
2018,08,13,04,46,11.70
2018,08,13,04,47,11.70
2018,08,13,04,48,11.60
2018,08,13,04,49,11.60
2018,08,13,04,50,11.60
2018,08,13,04,51,11.60
2018,08,13,04,52,11.50
2018,08,13,04,53,11.50
2018,08,13,04,54,11.50
2018,08,13,04,55,11.50
2018,08,13,04,56,11.50
2018,08,13,04,57,11.50
2018,08,13,04,58,11.50
2018,08,13,04,59,11.50
2018,08,13,05,00,11.50
2018,08,13,05,01,11.50
2018,08,13,05,02,11.60
2018,08,13,05,03,11.60
2018,08,13,05,04,11.60
2018,08,13,05,05,11.60
2018,08,13,05,06,11.60
2018,08,13,05,07,11.60
2018,08,13,05,08,11.60
2018,08,13,05,09,11.60
2018,08,13,05,10,11.60
2018,08,13,05,11,11.60
2018,08,13,05,12,11.50
2018,08,13,05,13,11.50
2018,08,13,05,14,11.50
2018,08,13,05,15,11.50
2018,08,13,05,16,11.40
2018,08,13,05,17,11.40
2018,08,13,05,18,11.40
2018,08,13,05,19,11.40
2018,08,13,05,20,11.30
2018,08,13,05,21,11.30
2018,08,13,05,22,11.30
2018,08,13,05,23,11.30
2018,08,13,05,24,11.30
2018,08,13,05,25,11.30
2018,08,13,05,26,11.30
2018,08,13,05,27,11.30
2018,08,13,05,28,11.30
2018,08,13,05,29,11.30
2018,08,13,05,30,11.40
2018,08,13,05,31,11.40
2018,08,13,05,32,11.40
2018,08,13,05,33,11.40
2018,08,13,05,34,11.40
2018,08,13,05,35,11.40
2018,08,13,05,36,11.40
2018,08,13,05,37,11.40
2018,08,13,05,38,11.40
2018,08,13,05,39,11.40
2018,08,13,05,40,11.40
2018,08,13,05,41,11.40
2018,08,13,05,42,11.40
2018,08,13,05,43,11.40
2018,08,13,05,44,11.40
2018,08,13,05,45,11.50
2018,08,13,05,46,11.50
2018,08,13,05,47,11.40
2018,08,13,05,48,11.40
2018,08,13,05,49,11.40
2018,08,13,05,50,11.40
2018,08,13,05,51,11.40
2018,08,13,05,52,11.40
2018,08,13,05,53,11.40
2018,08,13,05,54,11.30
2018,08,13,05,55,11.30
2018,08,13,05,56,11.20
2018,08,13,05,57,11.20
2018,08,13,05,58,11.10
2018,08,13,05,59,11.10
2018,08,13,06,00,11.10
2018,08,13,06,01,11.00
2018,08,13,06,02,11.00
2018,08,13,06,03,11.00
2018,08,13,06,04,10.90
2018,08,13,06,05,10.90
2018,08,13,06,06,11.00
2018,08,13,06,07,11.00
2018,08,13,06,08,10.90
2018,08,13,06,09,10.90
2018,08,13,06,10,11.00
2018,08,13,06,11,11.00
2018,08,13,06,12,11.00
2018,08,13,06,13,11.00
2018,08,13,06,14,11.00
2018,08,13,06,15,11.00
2018,08,13,06,16,11.00
2018,08,13,06,17,11.00
2018,08,13,06,18,11.00
2018,08,13,06,19,11.00
2018,08,13,06,20,11.00
2018,08,13,06,21,10.90
2018,08,13,06,22,10.90
2018,08,13,06,23,10.90
2018,08,13,06,24,10.90
2018,08,13,06,25,10.90
2018,08,13,06,26,10.90
2018,08,13,06,27,10.90
2018,08,13,06,28,10.90
2018,08,13,06,29,10.90
2018,08,13,06,30,10.80
2018,08,13,06,31,10.80
2018,08,13,06,32,10.80
2018,08,13,06,33,10.80
2018,08,13,06,34,10.80
2018,08,13,06,35,10.90
2018,08,13,06,36,10.90
2018,08,13,06,37,10.90
2018,08,13,06,38,10.90
2018,08,13,06,39,10.90
2018,08,13,06,40,10.90
2018,08,13,06,41,10.90
2018,08,13,06,42,10.90
2018,08,13,06,43,11.00
2018,08,13,06,44,11.00
2018,08,13,06,45,11.10
2018,08,13,06,46,11.10
2018,08,13,06,47,11.20
2018,08,13,06,48,11.20
2018,08,13,06,49,11.20
2018,08,13,06,50,11.20
2018,08,13,06,51,11.20
2018,08,13,06,52,11.20
2018,08,13,06,53,11.20
2018,08,13,06,54,11.20
2018,08,13,06,55,11.20
2018,08,13,06,56,11.20
2018,08,13,06,57,11.20
2018,08,13,06,58,11.20
2018,08,13,06,59,11.20
2018,08,13,07,00,11.20
2018,08,13,07,01,11.20
2018,08,13,07,02,11.20
2018,08,13,07,03,11.20
2018,08,13,07,04,11.30
2018,08,13,07,05,11.30
2018,08,13,07,06,11.30
2018,08,13,07,07,11.30
2018,08,13,07,08,11.30
2018,08,13,07,09,11.30
2018,08,13,07,10,11.30
2018,08,13,07,11,11.40
2018,08,13,07,12,11.40
2018,08,13,07,13,11.40
2018,08,13,07,14,11.40
2018,08,13,07,15,11.40
2018,08,13,07,16,11.40
2018,08,13,07,17,11.40
2018,08,13,07,18,11.40
2018,08,13,07,19,11.40
2018,08,13,07,20,11.40
2018,08,13,07,21,11.40
2018,08,13,07,22,11.40
2018,08,13,07,23,11.40
2018,08,13,07,24,11.40
2018,08,13,07,25,11.50
2018,08,13,07,26,11.50
2018,08,13,07,27,11.50
2018,08,13,07,28,11.50
2018,08,13,07,29,11.60
2018,08,13,07,30,11.60
2018,08,13,07,31,11.60
2018,08,13,07,32,11.70
2018,08,13,07,33,11.70
2018,08,13,07,34,11.80
2018,08,13,07,35,11.80
2018,08,13,07,36,11.90
2018,08,13,07,37,12.00
2018,08,13,07,38,12.00
2018,08,13,07,39,12.10
2018,08,13,07,40,12.10
2018,08,13,07,41,12.20
2018,08,13,07,42,12.20
2018,08,13,07,43,12.20
2018,08,13,07,44,12.30
2018,08,13,07,45,12.30
2018,08,13,07,46,12.30
2018,08,13,07,47,12.30
2018,08,13,07,48,12.40
2018,08,13,07,49,12.40
2018,08,13,07,50,12.50
2018,08,13,07,51,12.50
2018,08,13,07,52,12.50
2018,08,13,07,53,12.60
2018,08,13,07,54,12.60
2018,08,13,07,55,12.60
2018,08,13,07,56,12.70
2018,08,13,07,57,12.70
2018,08,13,07,58,12.80
2018,08,13,07,59,12.80
2018,08,13,08,00,12.80
2018,08,13,08,01,12.90
2018,08,13,08,02,12.90
2018,08,13,08,03,13.00
2018,08,13,08,04,13.00
2018,08,13,08,05,13.10
2018,08,13,08,06,13.10
2018,08,13,08,07,13.20
2018,08,13,08,08,13.30
2018,08,13,08,09,13.30
2018,08,13,08,10,13.40
2018,08,13,08,11,13.50
2018,08,13,08,12,13.60
2018,08,13,08,13,13.70
2018,08,13,08,14,13.70
2018,08,13,08,15,13.80
2018,08,13,08,16,13.90
2018,08,13,08,17,13.90
2018,08,13,08,18,14.00
2018,08,13,08,19,14.10
2018,08,13,08,20,14.10
2018,08,13,08,21,14.20
2018,08,13,08,22,14.20
2018,08,13,08,23,14.30
2018,08,13,08,24,14.30
2018,08,13,08,25,14.40
2018,08,13,08,26,14.40
2018,08,13,08,27,14.50
2018,08,13,08,28,14.50
2018,08,13,08,29,14.60
2018,08,13,08,30,14.60
2018,08,13,08,31,14.70
2018,08,13,08,32,14.70
2018,08,13,08,33,14.80
2018,08,13,08,34,14.80
2018,08,13,08,35,14.80
2018,08,13,08,36,14.90
2018,08,13,08,37,14.90
2018,08,13,08,38,15.00
2018,08,13,08,39,15.00
2018,08,13,08,40,15.10
2018,08,13,08,41,15.10
2018,08,13,08,42,15.10
2018,08,13,08,43,15.20
2018,08,13,08,44,15.20
2018,08,13,08,45,15.30
2018,08,13,08,46,15.30
2018,08,13,08,47,15.40
2018,08,13,08,48,15.40
2018,08,13,08,49,15.50
2018,08,13,08,50,15.60
2018,08,13,08,51,15.60
2018,08,13,08,52,15.70
2018,08,13,08,53,15.70
2018,08,13,08,54,15.80
2018,08,13,08,55,15.80
2018,08,13,08,56,15.90
2018,08,13,08,57,15.90
2018,08,13,08,58,15.90
2018,08,13,08,59,16.00
2018,08,13,09,00,16.00
2018,08,13,09,01,16.10
2018,08,13,09,02,16.10
2018,08,13,09,03,16.10
2018,08,13,09,04,16.20
2018,08,13,09,05,16.20
2018,08,13,09,06,16.20
2018,08,13,09,07,16.30
2018,08,13,09,08,16.30
2018,08,13,09,09,16.40
2018,08,13,09,10,16.50
2018,08,13,09,11,16.50
2018,08,13,09,12,16.60
2018,08,13,09,13,16.60
2018,08,13,09,14,16.70
2018,08,13,09,15,16.80
2018,08,13,09,16,16.80
2018,08,13,09,17,16.90
2018,08,13,09,18,17.00
2018,08,13,09,19,17.00
2018,08,13,09,20,17.10
2018,08,13,09,21,17.20
2018,08,13,09,22,17.20
2018,08,13,09,23,17.30
2018,08,13,09,24,17.40
2018,08,13,09,25,17.40
2018,08,13,09,26,17.50
2018,08,13,09,27,17.60
2018,08,13,09,28,17.60
2018,08,13,09,29,17.70
2018,08,13,09,30,17.70
2018,08,13,09,31,17.80
2018,08,13,09,32,17.80
2018,08,13,09,33,17.80
2018,08,13,09,34,17.80
2018,08,13,09,35,17.90
2018,08,13,09,36,17.90
2018,08,13,09,37,18.00
2018,08,13,09,38,18.00
2018,08,13,09,39,18.10
2018,08,13,09,40,18.10
2018,08,13,09,41,18.20
2018,08,13,09,42,18.20
2018,08,13,09,43,18.30
2018,08,13,09,44,18.30
2018,08,13,09,45,18.40
2018,08,13,09,46,18.50
2018,08,13,09,47,18.60
2018,08,13,09,48,18.60
2018,08,13,09,49,18.70
2018,08,13,09,50,18.70
2018,08,13,09,51,18.80
2018,08,13,09,52,18.80
2018,08,13,09,53,18.80
2018,08,13,09,54,18.80
2018,08,13,09,55,18.80
2018,08,13,09,56,18.80
2018,08,13,09,57,18.80
2018,08,13,09,58,18.80
2018,08,13,09,59,18.80
2018,08,13,10,00,18.90
2018,08,13,10,01,18.90
2018,08,13,10,02,18.90
2018,08,13,10,03,19.00
2018,08,13,10,04,19.00
2018,08,13,10,05,19.00
2018,08,13,10,06,19.00
2018,08,13,10,07,19.10
2018,08,13,10,08,19.10
2018,08,13,10,09,19.10
2018,08,13,10,10,19.10
2018,08,13,10,11,19.10
2018,08,13,10,12,19.10
2018,08,13,10,13,19.10
2018,08,13,10,14,19.20
2018,08,13,10,15,19.20
2018,08,13,10,16,19.30
2018,08,13,10,17,19.30
2018,08,13,10,18,19.30
2018,08,13,10,19,19.30
2018,08,13,10,20,19.30
2018,08,13,10,21,19.40
2018,08,13,10,22,19.40
2018,08,13,10,23,19.40
2018,08,13,10,24,19.30
2018,08,13,10,25,19.30
2018,08,13,10,26,19.40
2018,08,13,10,27,19.40
2018,08,13,10,28,19.40
2018,08,13,10,29,19.40
2018,08,13,10,30,19.50
2018,08,13,10,31,19.50
2018,08,13,10,32,19.60
2018,08,13,10,33,19.60
2018,08,13,10,34,19.60
2018,08,13,10,35,19.60
2018,08,13,10,36,19.60
2018,08,13,10,37,19.70
2018,08,13,10,38,19.80
2018,08,13,10,39,19.80
2018,08,13,10,40,19.80
2018,08,13,10,41,19.90
2018,08,13,10,42,19.90
2018,08,13,10,43,20.00
2018,08,13,10,44,20.00
2018,08,13,10,45,20.00
2018,08,13,10,46,20.00
2018,08,13,10,47,20.00
2018,08,13,10,48,20.00
2018,08,13,10,49,20.10
2018,08,13,10,50,20.10
2018,08,13,10,51,20.10
2018,08,13,10,52,20.10
2018,08,13,10,53,20.10
2018,08,13,10,54,20.10
2018,08,13,10,55,20.20
2018,08,13,10,56,20.20
2018,08,13,10,57,20.20
2018,08,13,10,58,20.20
2018,08,13,10,59,20.20
2018,08,13,11,00,20.10
2018,08,13,11,01,20.10
2018,08,13,11,02,20.10
2018,08,13,11,03,20.20
2018,08,13,11,04,20.20
2018,08,13,11,05,20.30
2018,08,13,11,06,20.30
2018,08,13,11,07,20.40
2018,08,13,11,08,20.40
2018,08,13,11,09,20.30
2018,08,13,11,10,20.30
2018,08,13,11,11,20.30
2018,08,13,11,12,20.30
2018,08,13,11,13,20.30
2018,08,13,11,14,20.30
2018,08,13,11,15,20.30
2018,08,13,11,16,20.20
2018,08,13,11,17,20.20
2018,08,13,11,18,20.20
2018,08,13,11,19,20.30
2018,08,13,11,20,20.30
2018,08,13,11,21,20.30
2018,08,13,11,22,20.20
2018,08,13,11,23,20.10
2018,08,13,11,24,20.10
2018,08,13,11,25,20.00
2018,08,13,11,26,20.00
2018,08,13,11,27,20.10
2018,08,13,11,28,20.10
2018,08,13,11,29,20.20
2018,08,13,11,30,20.20
2018,08,13,11,31,20.20
2018,08,13,11,32,20.20
2018,08,13,11,33,20.10
2018,08,13,11,34,20.10
2018,08,13,11,35,20.10
2018,08,13,11,36,20.10
2018,08,13,11,37,20.10
2018,08,13,11,38,20.10
2018,08,13,11,39,20.10
2018,08,13,11,40,20.10
2018,08,13,11,41,20.10
2018,08,13,11,42,20.10
2018,08,13,11,43,20.10
2018,08,13,11,44,20.10
2018,08,13,11,45,20.10
2018,08,13,11,46,20.00
2018,08,13,11,47,20.00
2018,08,13,11,48,20.00
2018,08,13,11,49,20.10
2018,08,13,11,50,20.20
2018,08,13,11,51,20.30
2018,08,13,11,52,20.30
2018,08,13,11,53,20.30
2018,08,13,11,54,20.40
2018,08,13,11,55,20.40
2018,08,13,11,56,20.40
2018,08,13,11,57,20.40
2018,08,13,11,58,20.40
2018,08,13,11,59,20.40
2018,08,13,12,00,20.40
2018,08,13,12,01,20.50
2018,08,13,12,02,20.50
2018,08,13,12,03,20.50
2018,08,13,12,04,20.50
2018,08,13,12,05,20.40
2018,08,13,12,06,20.40
2018,08,13,12,07,20.40
2018,08,13,12,08,20.40
2018,08,13,12,09,20.40
2018,08,13,12,10,20.40
2018,08,13,12,11,20.40
2018,08,13,12,12,20.40
2018,08,13,12,13,20.50
2018,08,13,12,14,20.50
2018,08,13,12,15,20.60
2018,08,13,12,16,20.60
2018,08,13,12,17,20.60
2018,08,13,12,18,20.70
2018,08,13,12,19,20.70
2018,08,13,12,20,20.80
2018,08,13,12,21,20.80
2018,08,13,12,22,20.90
2018,08,13,12,23,20.90
2018,08,13,12,24,21.00
2018,08,13,12,25,21.00
2018,08,13,12,26,21.10
2018,08,13,12,27,21.20
2018,08,13,12,28,21.30
2018,08,13,12,29,21.40
2018,08,13,12,30,21.40
2018,08,13,12,31,21.50
2018,08,13,12,32,21.50
2018,08,13,12,33,21.50
2018,08,13,12,34,21.50
2018,08,13,12,35,21.50
2018,08,13,12,36,21.50
2018,08,13,12,37,21.50
2018,08,13,12,38,21.40
2018,08,13,12,39,21.50
2018,08,13,12,40,21.50
2018,08,13,12,41,21.60
2018,08,13,12,42,21.60
2018,08,13,12,43,21.60
2018,08,13,12,44,21.60
2018,08,13,12,45,21.60
2018,08,13,12,46,21.60
2018,08,13,12,47,21.70
2018,08,13,12,48,21.70
2018,08,13,12,49,21.70
2018,08,13,12,50,21.70
2018,08,13,12,51,21.80
2018,08,13,12,52,21.90
2018,08,13,12,53,22.00
2018,08,13,12,54,22.00
2018,08,13,12,55,22.00
2018,08,13,12,56,22.00
2018,08,13,12,57,22.00
2018,08,13,12,58,22.10
2018,08,13,12,59,22.10
2018,08,13,13,00,22.20
2018,08,13,13,01,22.20
2018,08,13,13,02,22.20
2018,08,13,13,03,22.20
2018,08,13,13,04,22.10
2018,08,13,13,05,22.10
2018,08,13,13,06,22.00
2018,08,13,13,07,21.90
2018,08,13,13,08,21.90
2018,08,13,13,09,21.90
2018,08,13,13,10,21.90
2018,08,13,13,11,22.00
2018,08,13,13,12,22.00
2018,08,13,13,13,22.00
2018,08,13,13,14,22.00
2018,08,13,13,15,21.90
2018,08,13,13,16,21.90
2018,08,13,13,17,21.90
2018,08,13,13,18,21.80
2018,08,13,13,19,21.80
2018,08,13,13,20,21.80
2018,08,13,13,21,21.80
2018,08,13,13,22,21.90
2018,08,13,13,23,21.90
2018,08,13,13,24,21.90
2018,08,13,13,25,22.00
2018,08,13,13,26,22.00
2018,08,13,13,27,22.10
2018,08,13,13,28,22.10
2018,08,13,13,29,22.10
2018,08,13,13,30,22.10
2018,08,13,13,31,22.20
2018,08,13,13,32,22.30
2018,08,13,13,33,22.20
2018,08,13,13,34,22.20
2018,08,13,13,35,22.20
2018,08,13,13,36,22.20
2018,08,13,13,37,22.10
2018,08,13,13,38,22.10
2018,08,13,13,39,22.10
2018,08,13,13,40,22.10
2018,08,13,13,41,22.10
2018,08,13,13,42,22.10
2018,08,13,13,43,22.10
2018,08,13,13,44,22.10
2018,08,13,13,45,22.10
2018,08,13,13,46,22.10
2018,08,13,13,47,22.10
2018,08,13,13,48,22.10
2018,08,13,13,49,22.10
2018,08,13,13,50,22.10
2018,08,13,13,51,22.10
2018,08,13,13,52,22.20
2018,08,13,13,53,22.20
2018,08,13,13,54,22.30
2018,08,13,13,55,22.30
2018,08,13,13,56,22.30
2018,08,13,13,57,22.30
2018,08,13,13,58,22.30
2018,08,13,13,59,22.30
2018,08,13,14,00,22.30
2018,08,13,14,01,22.20
2018,08,13,14,02,22.10
2018,08,13,14,03,22.10
2018,08,13,14,04,22.10
2018,08,13,14,05,22.10
2018,08,13,14,06,22.10
2018,08,13,14,07,22.20
2018,08,13,14,08,22.20
2018,08,13,14,09,22.30
2018,08,13,14,10,22.30
2018,08,13,14,11,22.40
2018,08,13,14,12,22.40
2018,08,13,14,13,22.50
2018,08,13,14,14,22.60
2018,08,13,14,15,22.60
2018,08,13,14,16,22.70
2018,08,13,14,17,22.70
2018,08,13,14,18,22.70
2018,08,13,14,19,22.80
2018,08,13,14,20,22.80
2018,08,13,14,21,22.80
2018,08,13,14,22,22.70
2018,08,13,14,23,22.80
2018,08,13,14,24,22.70
2018,08,13,14,25,22.70
2018,08,13,14,26,22.60
2018,08,13,14,27,22.60
2018,08,13,14,28,22.60
2018,08,13,14,29,22.60
2018,08,13,14,30,22.60
2018,08,13,14,31,22.60
2018,08,13,14,32,22.60
2018,08,13,14,33,22.60
2018,08,13,14,34,22.60
2018,08,13,14,35,22.70
2018,08,13,14,36,22.70
2018,08,13,14,37,22.80
2018,08,13,14,38,22.80
2018,08,13,14,39,22.80
2018,08,13,14,40,22.90
2018,08,13,14,41,22.90
2018,08,13,14,42,22.80
2018,08,13,14,43,22.80
2018,08,13,14,44,22.70
2018,08,13,14,45,22.70
2018,08,13,14,46,22.60
2018,08,13,14,47,22.60
2018,08,13,14,48,22.60
2018,08,13,14,49,22.70
2018,08,13,14,50,22.80
2018,08,13,14,51,22.80
2018,08,13,14,52,22.90
2018,08,13,14,53,23.00
2018,08,13,14,54,23.00
2018,08,13,14,55,23.10
2018,08,13,14,56,23.10
2018,08,13,14,57,23.10
2018,08,13,14,58,23.10
2018,08,13,14,59,23.10
2018,08,13,15,00,23.00
2018,08,13,15,01,23.00
2018,08,13,15,02,23.00
2018,08,13,15,03,22.90
2018,08,13,15,04,23.00
2018,08,13,15,05,23.00
2018,08,13,15,06,23.00
2018,08,13,15,07,23.10
2018,08,13,15,08,23.10
2018,08,13,15,09,23.10
2018,08,13,15,10,23.10
2018,08,13,15,11,23.20
2018,08,13,15,12,23.20
2018,08,13,15,13,23.30
2018,08,13,15,14,23.30
2018,08,13,15,15,23.40
2018,08,13,15,16,23.40
2018,08,13,15,17,23.50
2018,08,13,15,18,23.50
2018,08,13,15,19,23.50
2018,08,13,15,20,23.50
2018,08,13,15,21,23.50
2018,08,13,15,22,23.50
2018,08,13,15,23,23.40
2018,08,13,15,24,23.30
2018,08,13,15,25,23.30
2018,08,13,15,26,23.30
2018,08,13,15,27,23.20
2018,08,13,15,28,23.30
2018,08,13,15,29,23.30
2018,08,13,15,30,23.30
2018,08,13,15,31,23.30
2018,08,13,15,32,23.30
2018,08,13,15,33,23.30
2018,08,13,15,34,23.30
2018,08,13,15,35,23.30
2018,08,13,15,36,23.30
2018,08,13,15,37,23.30
2018,08,13,15,38,23.30
2018,08,13,15,39,23.30
2018,08,13,15,40,23.30
2018,08,13,15,41,23.20
2018,08,13,15,42,23.20
2018,08,13,15,43,23.20
2018,08,13,15,44,23.10
2018,08,13,15,45,23.10
2018,08,13,15,46,23.00
2018,08,13,15,47,23.00
2018,08,13,15,48,23.00
2018,08,13,15,49,23.00
2018,08,13,15,50,23.00
2018,08,13,15,51,23.10
2018,08,13,15,52,23.10
2018,08,13,15,53,23.10
2018,08,13,15,54,23.10
2018,08,13,15,55,23.10
2018,08,13,15,56,23.10
2018,08,13,15,57,23.10
2018,08,13,15,58,23.10
2018,08,13,15,59,23.10
2018,08,13,16,00,23.10
2018,08,13,16,01,23.10
2018,08,13,16,02,23.10
2018,08,13,16,03,23.20
2018,08,13,16,04,23.20
2018,08,13,16,05,23.20
2018,08,13,16,06,23.20
2018,08,13,16,07,23.30
2018,08,13,16,08,23.30
2018,08,13,16,09,23.30
2018,08,13,16,10,23.30
2018,08,13,16,11,23.30
2018,08,13,16,12,23.30
2018,08,13,16,13,23.30
2018,08,13,16,14,23.30
2018,08,13,16,15,23.30
2018,08,13,16,16,23.30
2018,08,13,16,17,23.30
2018,08,13,16,18,23.20
2018,08,13,16,19,23.20
2018,08,13,16,20,23.20
2018,08,13,16,21,23.20
2018,08,13,16,22,23.20
2018,08,13,16,23,23.20
2018,08,13,16,24,23.20
2018,08,13,16,25,23.30
2018,08,13,16,26,23.30
2018,08,13,16,27,23.40
2018,08,13,16,28,23.40
2018,08,13,16,29,23.40
2018,08,13,16,30,23.40
2018,08,13,16,31,23.40
2018,08,13,16,32,23.40
2018,08,13,16,33,23.30
2018,08,13,16,34,23.30
2018,08,13,16,35,23.30
2018,08,13,16,36,23.30
2018,08,13,16,37,23.30
2018,08,13,16,38,23.30
2018,08,13,16,39,23.30
2018,08,13,16,40,23.40
2018,08,13,16,41,23.40
2018,08,13,16,42,23.40
2018,08,13,16,43,23.40
2018,08,13,16,44,23.40
2018,08,13,16,45,23.40
2018,08,13,16,46,23.40
2018,08,13,16,47,23.40
2018,08,13,16,48,23.40
2018,08,13,16,49,23.40
2018,08,13,16,50,23.40
2018,08,13,16,51,23.40
2018,08,13,16,52,23.40
2018,08,13,16,53,23.40
2018,08,13,16,54,23.40
2018,08,13,16,55,23.40
2018,08,13,16,56,23.40
2018,08,13,16,57,23.40
2018,08,13,16,58,23.40
2018,08,13,16,59,23.40
2018,08,13,17,00,23.40
2018,08,13,17,01,23.40
2018,08,13,17,02,23.40
2018,08,13,17,03,23.40
2018,08,13,17,04,23.30
2018,08,13,17,05,23.20
2018,08,13,17,06,23.10
2018,08,13,17,07,22.90
2018,08,13,17,08,22.80
2018,08,13,17,09,22.60
2018,08,13,17,10,22.50
2018,08,13,17,11,22.30
2018,08,13,17,12,22.20
2018,08,13,17,13,22.10
2018,08,13,17,14,22.10
2018,08,13,17,15,22.00
2018,08,13,17,16,22.00
2018,08,13,17,17,22.10
2018,08,13,17,18,22.00
2018,08,13,17,19,22.00